{"data":{"norad_id":57766,"intl_designator":"2023-133K","name":"WILDFIRE 10","alt_names":[],"object_type":"PAYLOAD","status":"ACTIVE","operator":null,"country":"US","launch_date":"2023-09-02","launch_site_code":"AFWTR","launch_vehicle":null,"mission":null,"orbit_class":"UNKNOWN","rcs_meters":null,"size_class":null,"mass_kg":null,"dimensions":null,"purposes":[],"wikipedia_slug":null,"has_3d_model":false,"image_url":null,"decayed_at":null,"tle_current":{"epoch":"2026-05-25T02:00:02.952000Z","epoch_age_seconds":74625,"freshness":"FRESH","line1":"1 57766U 23133K   26145.08336750  .00000109  00000+0  85589-4 0  9991","line2":"2 57766  81.0043  29.6657 0007482  67.5182 292.6766 13.85602559137849","mean_motion":13.85602559,"eccentricity":0.0007482,"inclination_deg":81.0043,"raan_deg":29.6657,"arg_perigee_deg":67.5182,"mean_anomaly_deg":292.6766,"bstar":8.5589e-5,"rev_number":13784,"period_min":103.92590506178,"perigee_km":938.60367495879,"apogee_km":949.56064370881,"semimajor_km":7322.2191593338,"source":"CELESTRAK","updated_at":"2026-05-25T13:38:00.237988Z"}}}